"Pseudo-MPEC" for P10Swlz

Created 2019 Oct 16 16:07:12 UT using Find_Orb

Click here for an explanation of pseudo-MPECs

 
 Astrometry: 
     P10Swlz  C2019 10 07P%j3;MGPo0(2^0QbX05n@q5yULXp:'G?Astrometryqredacted;F51
     P10Swlz  C2019 10 07Z[x[eHclickFH4^2fGkv\9qT(JcU(e%BhereGL,QqB?hdSLQ?sBpF51
     P10Swlz  C2019 10 07V5gford=explanation7MLsmR;:XW2?.)a%)C0Ut))py9+@##W*)F51

Station data:
(F51) Pan-STARRS 1, Haleakala  (N20.707235 W156.255910)  US/Hawaii.
   Observers N. Primak, A. Schultz, S. Watters, J. Thiel, T. Goggia. Measurer
   PS1 Science Consortium. 1.8-m Ritchey-Chrétien + CCD.

Orbital elements:  P10Swlz
   Perihelion 2019 Oct 15.298383 +/- 41.4 TT =  7:09:40 (JD 2458771.798383)
Epoch 2019 Oct  7.0 TT = JDT 2458763.5   Earth MOID: 0.0725   AutoNEOCP
M 354.32115378 +/- 20               (J2000 ecliptic)
n   0.68433164 +/- 0.356            Peri.   13.05356 +/- 60
a   1.27533702 +/- 0.443            Node     8.17936 +/- 52
e   0.1610444 +/- 0.26              Incl.   11.80445 +/- 9
P   1.44/526.05d           H 25.9   G  0.15   U 12.0  SR
q 1.06995101 +/- 0.184    Q 1.48072302 +/- 35
From 3 observations 2019 Oct. 7 (53.4 min); mean residual 0".02
Residuals in arcseconds: 
191007 F51  .00   .01-    191007 F51  .01+  .03+    191007 F51  .00   .02-    

Ephemerides (geocentric):
Date (UTC) HH   RA              Dec         delta   r     elong  mag " sig PA
---- -- -- --  -------------   -----------  ------ ------ -----  --- ---- ---
2019 10 16 16  23 48 03.468   +39 37 57.84  .09037 1.0700 142.5 22.3  49d 167
2019 10 16 17  23 47 54.986   +39 41 55.58  .09047 1.0700 142.4 22.3  49d 167
2019 10 16 18  23 47 46.514   +39 45 52.67  .09056 1.0700 142.3 22.3  49d 167
2019 10 16 19  23 47 38.051   +39 49 49.11  .09066 1.0700 142.3 22.3  49d 167
2019 10 16 20  23 47 29.598   +39 53 44.89  .09076 1.0700 142.2 22.3  49d 167
2019 10 16 21  23 47 21.155   +39 57 40.03  .09086 1.0700 142.1 22.3  49d 167
2019 10 16 22  23 47 12.721   +40 01 34.51  .09096 1.0700 142.0 22.3  49d 167
2019 10 16 23  23 47 04.297   +40 05 28.34  .09106 1.0700 142.0 22.3  49d 167
2019 10 17 00  23 46 55.883   +40 09 21.53  .09116 1.0700 141.9 22.3  49d 167
2019 10 17 01  23 46 47.479   +40 13 14.07  .09125 1.0700 141.8 22.3  49d 167
2019 10 17 02  23 46 39.084   +40 17 05.96  .09135 1.0700 141.8 22.3  49d 167
2019 10 17 03  23 46 30.700   +40 20 57.21  .09145 1.0700 141.7 22.4  49d 167
2019 10 17 04  23 46 22.326   +40 24 47.81  .09155 1.0700 141.6 22.4  49d 167
2019 10 17 05  23 46 13.961   +40 28 37.78  .09165 1.0700 141.5 22.4  49d 167
2019 10 17 06  23 46 05.607   +40 32 27.10  .09175 1.0700 141.5 22.4  49d 166
2019 10 17 07  23 45 57.262   +40 36 15.78  .09185 1.0700 141.4 22.4  49d 166
2019 10 17 08  23 45 48.928   +40 40 03.82  .09195 1.0700 141.3 22.4  49d 166
2019 10 17 09  23 45 40.604   +40 43 51.23  .09205 1.0700 141.2 22.4  49d 166
2019 10 17 10  23 45 32.290   +40 47 37.99  .09215 1.0700 141.2 22.4  49d 166
2019 10 17 11  23 45 23.986   +40 51 24.13  .09226 1.0700 141.1 22.4  49d 166
2019 10 17 12  23 45 15.693   +40 55 09.63  .09236 1.0700 141.0 22.4  49d 166
2019 10 17 13  23 45 07.410   +40 58 54.49  .09246 1.0700 141.0 22.4  49d 166
2019 10 17 14  23 44 59.137   +41 02 38.72  .09256 1.0701 140.9 22.4  49d 166
2019 10 17 15  23 44 50.875   +41 06 22.33  .09266 1.0701 140.8 22.4  49d 166
2019 10 17 16  23 44 42.623   +41 10 05.30  .09276 1.0701 140.8 22.4  49d 166
2019 10 17 17  23 44 34.381   +41 13 47.65  .09286 1.0701 140.7 22.4  49d 166
2019 10 17 18  23 44 26.150   +41 17 29.37  .09297 1.0701 140.6 22.4  49d 166
2019 10 17 19  23 44 17.929   +41 21 10.46  .09307 1.0701 140.5 22.4  49d 166
2019 10 17 20  23 44 09.719   +41 24 50.93  .09317 1.0701 140.5 22.4  49d 166
2019 10 17 21  23 44 01.520   +41 28 30.77  .09327 1.0701 140.4 22.4  49d 166
2019 10 17 22  23 43 53.331   +41 32 09.99  .09338 1.0701 140.3 22.4  49d 166
2019 10 17 23  23 43 45.153   +41 35 48.59  .09348 1.0701 140.3 22.4  49d 166
2019 10 18 00  23 43 36.985   +41 39 26.58  .09358 1.0701 140.2 22.4  49d 166
2019 10 18 01  23 43 28.829   +41 43 03.94  .09369 1.0701 140.1 22.4  49d 166
2019 10 18 02  23 43 20.683   +41 46 40.68  .09379 1.0701 140.1 22.4  49d 166
2019 10 18 03  23 43 12.547   +41 50 16.81  .09389 1.0701 140.0 22.5  49d 166
2019 10 18 04  23 43 04.423   +41 53 52.33  .09400 1.0701 139.9 22.5  49d 166
2019 10 18 05  23 42 56.310   +41 57 27.23  .09410 1.0701 139.9 22.5  49d 166
2019 10 18 06  23 42 48.207   +42 01 01.52  .09420 1.0701 139.8 22.5  49d 166
2019 10 18 07  23 42 40.115   +42 04 35.20  .09431 1.0701 139.7 22.5  49d 166
2019 10 18 08  23 42 32.035   +42 08 08.27  .09441 1.0701 139.7 22.5  49d 166
2019 10 18 09  23 42 23.965   +42 11 40.73  .09452 1.0701 139.6 22.5  49d 166
2019 10 18 10  23 42 15.907   +42 15 12.58  .09462 1.0701 139.5 22.5  49d 166
2019 10 18 11  23 42 07.859   +42 18 43.83  .09473 1.0701 139.5 22.5  49d 166
2019 10 18 12  23 41 59.823   +42 22 14.47  .09483 1.0702 139.4 22.5  49d 166
2019 10 18 13  23 41 51.798   +42 25 44.51  .09493 1.0702 139.3 22.5  49d 165
2019 10 18 14  23 41 43.784   +42 29 13.95  .09504 1.0702 139.3 22.5  49d 165
2019 10 18 15  23 41 35.781   +42 32 42.78  .09515 1.0702 139.2 22.5  49d 165